When you browse on this site, cookies collect data to enhance your experience and personalize the content and advertising you see.
Visit our Privacy Policy to learn more. By continuing to use the site, you agree to this use of cookies and data.
  • In Romania
  • List of Countries
  • For 7 days
  • Water Temperature
  • Satellite Maps
  • Weather Map
  • Weather Widgets
  • user-avatar
    Login

    Hourly Weather Les Mureaux

    Today, 26 June, Wednesday

    Time Temperature Precipitation Wind Pressure Humidity
    00:00 +21°C° 0 mm 2 mps 758 mmHg 85%
    01:00 +20°C° 0 mm 3 mps 758 mmHg 87%
    02:00 +20°C° 0 mm 3 mps 758 mmHg 88%
    03:00 +20°C° 0 mm 3 mps 758 mmHg 90%
    04:00 +20°C° 0 mm 3 mps 758 mmHg 88%
    05:00 +21°C° 0 mm 4 mps 758 mmHg 86%
    06:00 +21°C° 0 mm 4 mps 759 mmHg 84%
    07:00 +22°C° 0 mm 4 mps 758 mmHg 80%
    08:00 +25°C° 0 mm 5 mps 758 mmHg 76%
    09:00 +26°C° 0 mm 5 mps 758 mmHg 72%
    10:00 +28°C° 0 mm 5 mps 758 mmHg 68%
    11:00 +30°C° 0 mm 5 mps 759 mmHg 64%
    12:00 +32°C° 0 mm 6 mps 759 mmHg 60%
    13:00 +33°C° 0 mm 6 mps 758 mmHg 60%
    14:00 +33°C° 0 mm 6 mps 758 mmHg 60%
    15:00 +34°C° 0 mm 6 mps 758 mmHg 60%
    16:00 +33°C° 0 mm 6 mps 758 mmHg 64%
    17:00 +32°C° 0 mm 6 mps 758 mmHg 67%
    18:00 +30°C° 0 mm 5 mps 758 mmHg 71%
    19:00 +29°C° 0 mm 6 mps 758 mmHg 74%
    20:00 +27°C° 0 mm 6 mps 758 mmHg 76%
    21:00 +24°C° 0 mm 6 mps 759 mmHg 79%
    22:00 +24°C° 0 mm 6 mps 759 mmHg 81%
    23:00 +23°C° 0 mm 6 mps 759 mmHg 82%

    Tomorrow, 27 June, Thursday

    Time Temperature Precipitation Wind Pressure Humidity
    00:00 +22°C° 0 mm 5 mps 759 mmHg 83%
    01:00 +22°C° 0 mm 5 mps 759 mmHg 85%
    02:00 +21°C° 0 mm 5 mps 759 mmHg 87%
    03:00 +21°C° 0 mm 5 mps 759 mmHg 88%
    04:00 +21°C° 0 mm 5 mps 759 mmHg 87%
    05:00 +21°C° 0 mm 6 mps 759 mmHg 86%
    06:00 +21°C° 0 mm 6 mps 759 mmHg 84%
    07:00 +22°C° 0 mm 6 mps 759 mmHg 80%
    08:00 +24°C° 0 mm 6 mps 759 mmHg 75%
    09:00 +26°C° 0 mm 6 mps 760 mmHg 71%
    10:00 +28°C° 0 mm 6 mps 760 mmHg 67%
    11:00 +29°C° 0 mm 5 mps 760 mmHg 64%
    12:00 +30°C° 0 mm 5 mps 760 mmHg 60%
    13:00 +32°C° 0 mm 6 mps 759 mmHg 60%
    14:00 +32°C° 0 mm 6 mps 759 mmHg 60%
    15:00 +32°C° 0 mm 6 mps 759 mmHg 59%
    16:00 +29°C° 0 mm 6 mps 759 mmHg 61%
    17:00 +28°C° 0 mm 6 mps 759 mmHg 62%
    18:00 +27°C° 0 mm 6 mps 758 mmHg 63%
    19:00 +26°C° 0 mm 6 mps 759 mmHg 62%
    20:00 +24°C° 0 mm 6 mps 759 mmHg 60%
    21:00 +22°C° 0 mm 6 mps 759 mmHg 59%
    22:00 +22°C° 0 mm 6 mps 759 mmHg 61%
    23:00 +21°C° 0 mm 5 mps 759 mmHg 63%

    Day after tomorrow, 28 June, Friday

    Time Temperature Precipitation Wind Pressure Humidity
    00:00 +20°C° 0 mm 5 mps 759 mmHg 65%
    01:00 +19°C° 0 mm 5 mps 759 mmHg 67%
    02:00 +19°C° 0 mm 5 mps 759 mmHg 69%
    03:00 +18°C° 0 mm 4 mps 758 mmHg 72%
    04:00 +17°C° 0 mm 5 mps 758 mmHg 72%
    05:00 +17°C° 0 mm 5 mps 758 mmHg 72%
    06:00 +17°C° 0 mm 5 mps 758 mmHg 71%
    07:00 +20°C° 0 mm 5 mps 758 mmHg 67%
    08:00 +22°C° 0 mm 4 mps 758 mmHg 63%
    09:00 +25°C° 0 mm 4 mps 758 mmHg 59%
    10:00 +26°C° 0 mm 4 mps 758 mmHg 55%
    11:00 +28°C° 0 mm 5 mps 758 mmHg 52%
    12:00 +30°C° 0 mm 5 mps 758 mmHg 48%
    13:00 +30°C° 0 mm 5 mps 757 mmHg 48%
    14:00 +30°C° 0 mm 5 mps 757 mmHg 47%
    15:00 +32°C° 0 mm 5 mps 757 mmHg 47%
    16:00 +30°C° 0 mm 5 mps 757 mmHg 51%
    17:00 +29°C° 0 mm 4 mps 756 mmHg 56%
    18:00 +28°C° 0 mm 4 mps 756 mmHg 60%
    19:00 +26°C° 0 mm 4 mps 756 mmHg 64%
    20:00 +25°C° 0 mm 4 mps 756 mmHg 68%
    21:00 +22°C° 0 mm 3 mps 756 mmHg 72%
    22:00 +22°C° 0 mm 3 mps 756 mmHg 72%
    23:00 +21°C° 0 mm 3 mps 756 mmHg 73%

    29 June, Saturday

    Time Temperature Precipitation Wind Pressure Humidity
    00:00 +20°C° 0 mm 3 mps 756 mmHg 73%
    01:00 +20°C° 0 mm 2 mps 755 mmHg 73%
    02:00 +19°C° 0 mm 2 mps 755 mmHg 72%
    03:00 +19°C° 0 mm 2 mps 755 mmHg 71%
    04:00 +19°C° 0 mm 2 mps 755 mmHg 69%
    05:00 +20°C° 0 mm 2 mps 755 mmHg 67%
    06:00 +20°C° 0 mm 3 mps 755 mmHg 66%
    07:00 +22°C° 0 mm 3 mps 755 mmHg 60%
    08:00 +25°C° 0 mm 3 mps 755 mmHg 55%
    09:00 +27°C° 0 mm 3 mps 755 mmHg 50%
    10:00 +29°C° 0 mm 3 mps 754 mmHg 46%
    11:00 +30°C° 0 mm 3 mps 754 mmHg 42%
    12:00 +33°C° 0 mm 3 mps 754 mmHg 38%
    13:00 +34°C° 0 mm 3 mps 753 mmHg 39%
    14:00 +34°C° 0 mm 3 mps 753 mmHg 39%
    15:00 +35°C° 0 mm 3 mps 753 mmHg 39%
    16:00 +34°C° 0 mm 2 mps 753 mmHg 44%
    17:00 +32°C° 0 mm 2 mps 752 mmHg 50%
    18:00 +31°C° 0 mm 2 mps 752 mmHg 56%
    19:00 +30°C° 0 mm 2 mps 752 mmHg 61%
    20:00 +28°C° 0 mm 2 mps 752 mmHg 67%
    21:00 +26°C° 0 mm 2 mps 753 mmHg 72%
    22:00 +25°C° 0 mm 2 mps 753 mmHg 77%
    23:00 +24°C° 0 mm 2 mps 753 mmHg 81%

    30 June, Sunday

    Time Temperature Precipitation Wind Pressure Humidity
    00:00 +22°C° 0 mm 3 mps 753 mmHg 85%
    01:00 +21°C° 0 mm 3 mps 753 mmHg 88%
    02:00 +21°C° 0 mm 3 mps 753 mmHg 90%
    03:00 +20°C° 0 mm 3 mps 753 mmHg 92%
    04:00 +20°C° 0 mm 3 mps 754 mmHg 89%
    05:00 +20°C° 0 mm 4 mps 754 mmHg 85%
    06:00 +20°C° 0 mm 4 mps 754 mmHg 82%
    07:00 +21°C° 0 mm 4 mps 755 mmHg 73%
    08:00 +22°C° 0 mm 4 mps 755 mmHg 65%
    09:00 +24°C° 0 mm 3 mps 756 mmHg 57%
    10:00 +25°C° 0 mm 3 mps 756 mmHg 53%
    11:00 +26°C° 0 mm 3 mps 756 mmHg 50%
    12:00 +27°C° 0 mm 3 mps 756 mmHg 46%
    13:00 +27°C° 0 mm 3 mps 756 mmHg 46%
    14:00 +27°C° 0 mm 3 mps 756 mmHg 46%
    15:00 +28°C° 0 mm 3 mps 756 mmHg 47%
    16:00 +27°C° 0 mm 3 mps 757 mmHg 52%
    17:00 +26°C° 0 mm 3 mps 757 mmHg 57%
    18:00 +25°C° 0 mm 3 mps 757 mmHg 63%
    19:00 +22°C° 0 mm 3 mps 757 mmHg 69%
    20:00 +20°C° 0 mm 3 mps 757 mmHg 74%
    21:00 +19°C° 0 mm 2 mps 757 mmHg 80%
    22:00 +18°C° 0 mm 2 mps 757 mmHg 81%
    23:00 +17°C° 0 mm 2 mps 757 mmHg 81%

    1 July, Monday

    Time Temperature Precipitation Wind Pressure Humidity
    00:00 +16°C° 0 mm 2 mps 757 mmHg 81%
    01:00 +15°C° 0 mm 2 mps 757 mmHg 81%
    02:00 +15°C° 0 mm 2 mps 757 mmHg 80%
    03:00 +14°C° 0 mm 1 mps 757 mmHg 80%
    04:00 +15°C° 0 mm 1 mps 757 mmHg 78%
    05:00 +16°C° 0 mm 1 mps 757 mmHg 76%
    06:00 +16°C° 0 mm 1 mps 758 mmHg 74%
    07:00 +19°C° 0 mm 1 mps 758 mmHg 70%
    08:00 +20°C° 0 mm 2 mps 758 mmHg 66%
    09:00 +21°C° 0 mm 2 mps 758 mmHg 63%
    10:00 +23°C° 0 mm 2 mps 758 mmHg 58%
    11:00 +25°C° 0 mm 2 mps 758 mmHg 54%
    12:00 +26°C° 0 mm 2 mps 758 mmHg 50%
    13:00 +26°C° 0 mm 3 mps 758 mmHg 52%
    14:00 +26°C° 0 mm 3 mps 758 mmHg 54%
    15:00 +26°C° 0 mm 4 mps 758 mmHg 57%
    16:00 +25°C° 0 mm 4 mps 758 mmHg 60%
    17:00 +23°C° 0 mm 5 mps 758 mmHg 64%
    18:00 +22°C° 0 mm 5 mps 757 mmHg 67%
    19:00 +20°C° 0 mm 4 mps 758 mmHg 72%
    20:00 +18°C° 0 mm 4 mps 758 mmHg 77%
    21:00 +16°C° 0 mm 3 mps 759 mmHg 81%
    22:00 +14°C° 0 mm 3 mps 759 mmHg 84%
    23:00 +14°C° 0 mm 3 mps 759 mmHg 86%
    Show more